This is the latest recevied weather packets stored in our database for station/object WAYLND-WX. If no packets are shown the sender has not sent any weather packets the latest 1 day(s).
| Time | Temp. | Humidity | Pressure | Rain* | Wind** | Luminosity | Snow |
|---|---|---|---|---|---|---|---|
| 1778017542 | 11.67° C | 38% | 982.5 hPa | 0 mm | 5.81 m/s, 288° | - | - |
| 1778016662 | 11.67° C | 38% | 982.1 hPa | 0 mm | 5.81 m/s, 284° | - | - |
| 1778015742 | 11.67° C | 38% | 982.1 hPa | 0 mm | 5.81 m/s, 283° | - | - |
| 1778014875 | 11.67° C | 38% | 982.1 hPa | 0 mm | 6.26 m/s, 284° | - | - |
| 1778013942 | 11.67° C | 40% | 982.6 hPa | 0 mm | 6.26 m/s, 282° | - | - |
| 1778013063 | 11.67° C | 41% | 981.9 hPa | 0 mm | 5.81 m/s, 278° | - | - |
| 1778012142 | 11.67° C | 37% | 981.7 hPa | 0 mm | 6.26 m/s, 279° | - | - |
| 1778011271 | 12.22° C | 37% | 981.7 hPa | 0 mm | 6.26 m/s, 277° | - | - |
| 1778010341 | 12.22° C | 33% | 981.5 hPa | 0 mm | 6.26 m/s, 273° | - | - |
| 1778009458 | 12.22° C | 33% | 981.5 hPa | 0 mm | 6.26 m/s, 276° | - | - |
| 1778008544 | 12.22° C | 33% | 981.5 hPa | 0 mm | 5.81 m/s, 275° | - | - |
| 1778007671 | 12.22° C | 33% | 981.5 hPa | 0 mm | 6.26 m/s, 273° | - | - |
| 1778006744 | 12.22° C | 36% | 982.3 hPa | 0 mm | 6.26 m/s, 268° | - | - |
| 1778005867 | 12.22° C | 37% | 981.4 hPa | 0 mm | 6.71 m/s, 272° | - | - |
| 1778004944 | 12.78° C | 37% | 981.4 hPa | 0 mm | 6.71 m/s, 275° | - | - |
| 1778004077 | 12.78° C | 37% | 981.4 hPa | 0 mm | 6.26 m/s, 271° | - | - |
| 1778003144 | 12.78° C | 35% | 980.6 hPa | 0 mm | 5.81 m/s, 272° | - | - |
| 1778002260 | 12.78° C | 36% | 979.7 hPa | 0 mm | 5.81 m/s, 275° | - | - |
| 1778001344 | 12.22° C | 36% | 979.7 hPa | 0 mm | 5.36 m/s, 277° | - | - |
| 1778000475 | 12.22° C | 36% | 979.7 hPa | 0 mm | 5.81 m/s, 280° | - | - |
| 1777999544 | 11.67° C | 40% | 980.8 hPa | 0 mm | 5.81 m/s, 290° | - | - |
| 1777998663 | 11.67° C | 41% | 978.9 hPa | 0 mm | 5.81 m/s, 290° | - | - |
| 1777997744 | 11.11° C | 41% | 978.9 hPa | 0 mm | 5.36 m/s, 281° | - | - |
| 1777996877 | 11.11° C | 41% | 978.9 hPa | 0 mm | 4.92 m/s, 273° | - | - |
| 1777995942 | 10.56° C | 44% | 980.8 hPa | 0 mm | 4.92 m/s, 269° | - | - |
* Rain latest hour (hover to see other rain measurements)
** Current wind speed in m/s (hover to see current wind gust speed)